Location: Bottenau
(48.5138°N, 8.0462°E)
Time: 20:52:30
(UTC+00:00)

Cosmos 921 Rocket - Pass Details

Date: 18 April 2021
Orbit: 572 x 631 km, 75.8° (Epoch: 18 May)

Event Time Altitude Azimuth Distance (km) Brightness Sun altitude
Rises 21:56:03 0° 343° (NNW) 2,914 7.8 -27.0°
Reaches altitude 10° 21:58:24 10° 349° (N) 1,996 6.6 -27.2°
Enters shadow 22:01:49 42° 27° (NNE) 886 4.0 -27.4°
